This is the latest recevied weather packets stored in our database for station/object KE8ZLU. If no packets are shown the sender has not sent any weather packets the latest 10 day(s).
| Time | Temp. | Humidity | Pressure | Rain* | Wind** | Luminosity | Snow |
|---|---|---|---|---|---|---|---|
| 1777924147 | 22.78° C | 40% | 1001.7 hPa | 0 mm | - | 568 W/m² | - |
| 1777923842 | 23.33° C | 38% | 1002.1 hPa | 0 mm | - | 166 W/m² | - |
| 1777923539 | 23.33° C | 38% | 1002 hPa | 0 mm | - | 642 W/m² | - |
| 1777923236 | 23.33° C | 37% | 1002.2 hPa | 0 mm | - | 642 W/m² | - |
| 1777922935 | 23.33° C | 37% | 1002.1 hPa | 0 mm | - | 641 W/m² | - |
| 1777922632 | 23.33° C | 37% | 1002.2 hPa | 0 mm | - | 697 W/m² | - |
| 1777922330 | 23.89° C | 36% | 1002.2 hPa | 0 mm | - | 238 W/m² | - |
| 1777922028 | 23.33° C | 37% | 1002.2 hPa | 0 mm | - | 429 W/m² | - |
| 1777921723 | 23.33° C | 36% | 1002.4 hPa | 0 mm | - | 647 W/m² | - |
| 1777921419 | 22.78° C | 35% | 1002.4 hPa | 0 mm | - | 609 W/m² | - |
| 1777921116 | 23.33° C | 37% | 1002.4 hPa | 0 mm | - | 685 W/m² | - |
| 1777920813 | 23.33° C | 35% | 1002.5 hPa | 0 mm | - | 700 W/m² | - |
| 1777920509 | 23.89° C | 34% | 1002.6 hPa | 0 mm | - | 650 W/m² | - |
| 1777920205 | 22.78° C | 35% | 1002.5 hPa | 0 mm | - | 705 W/m² | - |
| 1777919900 | 23.33° C | 33% | 1002.9 hPa | 0 mm | - | 717 W/m² | - |
| 1777919598 | 22.78° C | 35% | 1002.4 hPa | 0 mm | - | 714 W/m² | - |
| 1777919296 | 22.78° C | 36% | 1002.7 hPa | 0 mm | - | 715 W/m² | - |
| 1777918993 | 22.78° C | 33% | 1002.6 hPa | 0 mm | - | 719 W/m² | - |
| 1777918690 | 22.78° C | 35% | 1002.8 hPa | 0 mm | - | 702 W/m² | - |
| 1777918388 | 23.33° C | 36% | 1002.8 hPa | 0 mm | - | 729 W/m² | - |
| 1777918087 | 22.78° C | 34% | 1002.9 hPa | 0 mm | - | 736 W/m² | - |
| 1777917785 | 22.78° C | 34% | 1003 hPa | 0 mm | - | 717 W/m² | - |
| 1777917482 | 22.78° C | 35% | 1002.9 hPa | 0 mm | - | 721 W/m² | - |
| 1777917179 | 22.78° C | 34% | 1002.9 hPa | 0 mm | - | 736 W/m² | - |
| 1777916877 | 22.78° C | 38% | 1003.1 hPa | 0 mm | - | 696 W/m² | - |
* Rain latest hour (hover to see other rain measurements)
** Current wind speed in m/s (hover to see current wind gust speed)